Sexton Summit, OR

4:03 PM PDT on October 22, 2019 (GMT -0700)
Sexton Summit

Weather History for KSXT - August, 2019

Change the Weather History Date:

Sunday, August 4, 2019

  Actual Average Record
Temperature  
Mean Temperature 73 °F -  
Max Temperature 84 °F 75 °F 95 °F (1998)
Min Temperature 62 °F 53 °F 42 °F (2002)
Cooling Degree Days 8    
Growing Degree Days 23 (Base 50)    
Moisture  
Dew Point 56 °F    
Average Humidity 59    
Maximum Humidity 81    
Minimum Humidity 37    
Precipitation  
Precipitation 0.00 in - - ()
Sea Level Pressure  
Sea Level Pressure 29.93 in    
Wind  
Wind Speed 6 mph (North)    
Max Wind Speed 10 mph    
Max Gust Speed -    
Visibility 10 miles    
Events      
Averages and records for this station are not official NWS values.
T = Trace of Precipitation, MM = Missing Value Source: NWS Daily Summary

Daily Weather History Graph

Daily Weather History Graph

Search for Another Location

Airport or City:

Astronomy

Aug. 04, 2019 Rise Set
Actual Time 6:08 AM PDT 8:30 PM PDT
Civil Twilight 5:36 AM PDT 9:01 PM PDT
Nautical Twilight 4:57 AM PDT 9:40 PM PDT
Astronomical Twilight 4:13 AM PDT 10:24 PM PDT
Moon 10:25 AM PDT (8/4) 11:06 PM PDT (8/4)
Length of Visible Light 15h 24m
Length of Day
14h 21m
Waxing Crescent, 19% of the Moon is Illuminated
Aug 4
Waxing Crescent
Aug 7
First Quarter
Aug 15
Full
Aug 23
Last Quarter
Aug 30
New

Hourly Weather History & Observations

Time (PDT) Temp. Heat Index Dew Point Humidity Pressure Visibility Wind Dir Wind Speed Gust Speed Precip Events Conditions
12:56 AM 64.0 °F - 55.9 °F 75% 29.94 in 10.0 mi North 10.4 mph - N/A   Clear
1:56 AM 63.0 °F - 57.0 °F 81% 29.93 in 10.0 mi North 9.2 mph - N/A   Clear
2:56 AM 62.1 °F - 55.9 °F 80% 29.93 in 10.0 mi North 9.2 mph - N/A   Clear
3:56 AM 64.0 °F - 54.0 °F 70% 29.92 in 10.0 mi NNE 6.9 mph - N/A   Clear
5:56 AM 64.0 °F - 53.1 °F 67% 29.92 in 10.0 mi North 5.8 mph - N/A   Clear
6:56 AM 64.0 °F - 53.1 °F 67% 29.93 in 10.0 mi North 8.1 mph - N/A   Clear
7:56 AM 69.1 °F - 55.0 °F 61% 29.92 in 10.0 mi Calm Calm - N/A   Clear
8:56 AM 70.0 °F - 55.9 °F 61% 29.94 in 10.0 mi Variable 3.5 mph - N/A   Clear
9:56 AM 73.0 °F - 57.0 °F 57% 29.94 in 10.0 mi Calm Calm - N/A   Clear
10:56 AM 72.0 °F - 57.0 °F 59% 29.95 in 10.0 mi Calm Calm - N/A   Clear
11:56 AM 73.0 °F - 57.0 °F 57% 29.95 in 8.0 mi Variable 3.5 mph - N/A   Clear
12:56 PM 79.0 °F - 59.0 °F 50% 29.93 in 8.0 mi Variable 3.5 mph - N/A   Clear
1:56 PM 82.9 °F 82.8 °F 59.0 °F 44% 29.92 in 10.0 mi Calm Calm - N/A   Clear
2:56 PM 82.9 °F 82.1 °F 55.9 °F 39% 29.92 in 10.0 mi Variable 4.6 mph - N/A   Clear
3:56 PM 84.0 °F 82.9 °F 55.0 °F 37% 29.90 in 10.0 mi Variable 3.5 mph - N/A   Clear
4:56 PM 82.9 °F 82.0 °F 55.0 °F 38% 29.89 in 10.0 mi Variable 5.8 mph - N/A   Clear
5:56 PM 81.0 °F 80.5 °F 54.0 °F 39% 29.90 in 10.0 mi North - - N/A   Clear
6:56 PM 77.0 °F - 54.0 °F 45% 29.92 in 10.0 mi Calm Calm - N/A   Clear
7:56 PM 72.0 °F - 54.0 °F 53% 29.93 in 10.0 mi Variable 4.6 mph - N/A   Clear
8:56 PM 68.0 °F - 55.9 °F 65% 29.95 in 10.0 mi North 8.1 mph - N/A   Clear
9:56 PM 66.0 °F - 55.9 °F 70% 29.95 in 10.0 mi NNW 9.2 mph - N/A   Clear
10:56 PM 64.0 °F - 55.0 °F 73% 29.97 in 10.0 mi NNW 10.4 mph - N/A   Clear
11:56 PM 63.0 °F - 54.0 °F 72% 29.97 in 10.0 mi North 10.4 mph - N/A   Clear